| time (UTC) | temp C | wind direction | speed KPH | gust KPH | rain 1hr cm | rain 24hr cm | rain mn cm | humidity % | barometer mb |
| 20260505035427 | 17 | 116 | 0.0 | 3.2 | 0.00 | 0.00 | 0.00 | 65 | 1017.8 |
| 20260505034924 | 17 | 63 | 1.6 | 3.2 | 0.00 | 0.00 | 0.00 | 66 | 1017.8 |
| 20260505034420 | 18 | 75 | 1.6 | 3.2 | 0.00 | 0.00 | 0.00 | 63 | 1017.7 |
| 20260505033918 | 18 | 189 | 0.0 | 3.2 | 0.00 | 0.00 | 0.00 | 60 | 1017.6 |
| 20260505033414 | 18 | 158 | 0.0 | 3.2 | 0.00 | 0.00 | 0.00 | 60 | 1017.4 |
| 20260505032913 | 18 | 1 | 1.6 | 4.8 | 0.00 | 0.00 | 0.00 | 61 | 1017.5 |
| 20260505032409 | 18 | 78 | 3.2 | 4.8 | 0.00 | 0.00 | 0.00 | 59 | 1017.6 |
| 20260505031906 | 18 | 100 | 3.2 | 3.2 | 0.00 | 0.00 | 0.00 | 57 | 1017.6 |
| 20260505031403 | 19 | 85 | 0.0 | 3.2 | 0.00 | 0.00 | 0.00 | 55 | 1017.4 |
| 20260505030900 | 19 | 133 | 0.0 | 3.2 | 0.00 | 0.00 | 0.00 | 54 | 1017.3 |
| 20260505030356 | 20 | 63 | 1.6 | 3.2 | 0.00 | 0.00 | 0.00 | 53 | 1017.2 |
| 20260505025851 | 20 | 104 | 3.2 | 3.2 | 0.00 | 0.00 | 0.00 | 54 | 1017.2 |
| 20260505025349 | 20 | 56 | 1.6 | 3.2 | 0.00 | 0.00 | 0.00 | 52 | 1016.9 |
| 20260505024848 | 20 | 77 | 0.0 | 4.8 | 0.00 | 0.00 | 0.00 | 51 | 1017.2 |
| 20260505024345 | 20 | 156 | 1.6 | 3.2 | 0.00 | 0.00 | 0.00 | 51 | 1017.1 |
| 20260505023842 | 21 | 104 | 0.0 | 3.2 | 0.00 | 0.00 | 0.00 | 49 | 1017.1 |
| 20260505023339 | 21 | 110 | 1.6 | 3.2 | 0.00 | 0.00 | 0.00 | 49 | 1017.0 |
| 20260505022836 | 21 | 156 | 0.0 | 1.6 | 0.00 | 0.00 | 0.00 | 48 | 1017.1 |
| 20260505022333 | 21 | 228 | 0.0 | 3.2 | 0.00 | 0.00 | 0.00 | 48 | 1017.1 |
| 20260505021830 | 22 | 178 | 0.0 | 3.2 | 0.00 | 0.00 | 0.00 | 47 | 1017.0 |
| 20260505021327 | 22 | 166 | 0.0 | 3.2 | 0.00 | 0.00 | 0.00 | 47 | 1017.2 |
| 20260505020822 | 22 | 260 | 0.0 | 4.8 | 0.00 | 0.00 | 0.00 | 46 | 1016.9 |
| 20260505020318 | 22 | 348 | 1.6 | 4.8 | 0.00 | 0.00 | 0.00 | 46 | 1016.8 |
| 20260505015815 | 22 | 256 | 3.2 | 4.8 | 0.00 | 0.00 | 0.00 | 48 | 1016.9 |
| 20260505015312 | 22 | 242 | 3.2 | 4.8 | 0.00 | 0.00 | 0.00 | 47 | 1016.9 |
| 20260505014810 | 23 | 240 | 3.2 | 4.8 | 0.00 | 0.00 | 0.00 | 47 | 1017.0 |
| 20260505014307 | 23 | 225 | 1.6 | 3.2 | 0.00 | 0.00 | 0.00 | 44 | 1016.9 |
| 20260505013803 | 23 | 248 | 3.2 | 4.8 | 0.00 | 0.00 | 0.00 | 42 | 1016.8 |
| 20260505013300 | 23 | 246 | 3.2 | 4.8 | 0.00 | 0.00 | 0.00 | 43 | 1017.1 |
| 20260505012759 | 23 | 243 | 3.2 | 4.8 | 0.00 | 0.00 | 0.00 | 42 | 1016.9 |
| 20260505012256 | 23 | 259 | 3.2 | 4.8 | 0.00 | 0.00 | 0.00 | 43 | 1016.7 |
| 20260505011752 | 23 | 244 | 3.2 | 4.8 | 0.00 | 0.00 | 0.00 | 43 | 1016.9 |
| 20260505011249 | 24 | 284 | 0.0 | 3.2 | 0.00 | 0.00 | 0.00 | 42 | 1016.9 |
| 20260505010744 | 24 | 167 | 0.0 | 3.2 | 0.00 | 0.00 | 0.00 | 41 | 1016.9 |
| 20260505010241 | 25 | 89 | 0.0 | 3.2 | 0.00 | 0.00 | 0.00 | 40 | 1017.0 |
| 20260505005737 | 26 | 303 | 3.2 | 3.2 | 0.00 | 0.00 | 0.00 | 37 | 1016.9 |
| 20260505005234 | 27 | 269 | 0.0 | 3.2 | 0.00 | 0.00 | 0.00 | 35 | 1017.0 |
| 20260505004731 | 26 | 296 | 1.6 | 4.8 | 0.00 | 0.00 | 0.00 | 37 | 1016.9 |
| 20260505004228 | 26 | 23 | 3.2 | 8.0 | 0.00 | 0.00 | 0.00 | 37 | 1016.8 |
| 20260505003725 | 26 | 248 | 4.8 | 6.4 | 0.00 | 0.00 | 0.00 | 39 | 1016.8 |
| 20260505003223 | 25 | 308 | 0.0 | 3.2 | 0.00 | 0.00 | 0.00 | 39 | 1016.9 |
| 20260505002719 | 25 | 170 | 3.2 | 6.4 | 0.00 | 0.00 | 0.00 | 38 | 1017.1 |
| 20260505002216 | 25 | 145 | 0.0 | 8.0 | 0.00 | 0.00 | 0.00 | 40 | 1016.9 |
| 20260505001714 | 25 | 329 | 1.6 | 3.2 | 0.00 | 0.00 | 0.00 | 38 | 1016.9 |
| 20260505001211 | 25 | 271 | 3.2 | 3.2 | 0.00 | 0.00 | 0.00 | 38 | 1017.1 |
| 20260505000708 | 25 | 268 | 1.6 | 3.2 | 0.00 | 0.00 | 0.00 | 39 | 1017.0 |
| 20260505000206 | 25 | 225 | 0.0 | 3.2 | 0.00 | 0.00 | 0.00 | 39 | 1017.0 |
| 20260504235702 | 25 | 324 | 4.8 | 6.4 | 0.00 | 0.00 | 0.00 | 40 | 1017.3 |
| 20260504235158 | 25 | 18 | 6.4 | 8.0 | 0.00 | 0.00 | 0.00 | 39 | 1017.0 |
| 20260504234656 | 26 | 121 | 3.2 | 3.2 | 0.00 | 0.00 | 0.00 | 37 | 1017.3 |
| 20260504234153 | 26 | 299 | 0.0 | 6.4 | 0.00 | 0.00 | 0.00 | 39 | 1017.2 |
| 20260504233649 | 26 | 121 | 3.2 | 3.2 | 0.00 | 0.00 | 0.00 | 37 | 1017.2 |
| 20260504233145 | 26 | 236 | 1.6 | 3.2 | 0.00 | 0.00 | 0.00 | 37 | 1017.0 |
| 20260504232643 | 26 | 261 | 4.8 | 8.0 | 0.00 | 0.00 | 0.00 | 37 | 1017.4 |
| 20260504232139 | 27 | 326 | 0.0 | 4.8 | 0.00 | 0.00 | 0.00 | 35 | 1017.1 |
| 20260504231636 | 26 | 162 | 4.8 | 4.8 | 0.00 | 0.00 | 0.00 | 37 | 1017.2 |
| 20260504231132 | 26 | 35 | 0.0 | 8.0 | 0.00 | 0.00 | 0.00 | 35 | 1017.2 |
| 20260504230629 | 25 | 359 | 1.6 | 4.8 | 0.00 | 0.00 | 0.00 | 36 | 1017.2 |
| 20260504230127 | 25 | 108 | 1.6 | 8.0 | 0.00 | 0.00 | 0.00 | 37 | 1017.2 |
| 20260504225625 | 27 | 127 | 0.0 | 6.4 | 0.00 | 0.00 | 0.00 | 37 | 1017.3 |
| 20260504225121 | 26 | 78 | 4.8 | 6.4 | 0.00 | 0.00 | 0.00 | 37 | 1017.3 |
| 20260504224618 | 26 | 57 | 3.2 | 11.3 | 0.00 | 0.00 | 0.00 | 35 | 1017.4 |
| 20260504224115 | 25 | 60 | 0.0 | 9.7 | 0.00 | 0.00 | 0.00 | 37 | 1017.4 |
| 20260504223612 | 25 | 12 | 1.6 | 6.4 | 0.00 | 0.00 | 0.00 | 38 | 1017.4 |
| 20260504223108 | 26 | 43 | 6.4 | 6.4 | 0.00 | 0.00 | 0.00 | 37 | 1017.3 |
| 20260504222605 | 26 | 139 | 0.0 | 4.8 | 0.00 | 0.00 | 0.00 | 36 | 1017.3 |
| 20260504222102 | 27 | 306 | 3.2 | 4.8 | 0.00 | 0.00 | 0.00 | 35 | 1017.7 |
| 20260504221559 | 26 | 164 | 3.2 | 8.0 | 0.00 | 0.00 | 0.00 | 36 | 1017.5 |
| 20260504221056 | 26 | 125 | 1.6 | 4.8 | 0.00 | 0.00 | 0.00 | 38 | 1017.7 |
| 20260504220552 | 26 | 106 | 1.6 | 4.8 | 0.00 | 0.00 | 0.00 | 38 | 1017.5 |
| 20260504220049 | 26 | 46 | 6.4 | 6.4 | 0.00 | 0.00 | 0.00 | 38 | 1017.8 |
| 20260504215546 | 25 | 252 | 0.0 | 1.6 | 0.00 | 0.00 | 0.00 | 36 | 1017.9 |
| 20260504215044 | 26 | 47 | 6.4 | 8.0 | 0.00 | 0.00 | 0.00 | 37 | 1018.0 |
| 20260504214539 | 25 | 44 | 4.8 | 4.8 | 0.00 | 0.00 | 0.00 | 38 | 1018.0 |
| 20260504214036 | 25 | 72 | 3.2 | 3.2 | 0.00 | 0.00 | 0.00 | 35 | 1017.9 |
| 20260504213532 | 25 | 14 | 9.7 | 9.7 | 0.00 | 0.00 | 0.00 | 39 | 1018.0 |
| 20260504213030 | 24 | 24 | 8.0 | 16.1 | 0.00 | 0.00 | 0.00 | 39 | 1018.0 |
| 20260504212525 | 25 | 45 | 9.7 | 12.9 | 0.00 | 0.00 | 0.00 | 38 | 1018.0 |
| 20260504212023 | 25 | 126 | 6.4 | 6.4 | 0.00 | 0.00 | 0.00 | 38 | 1018.0 |
| 20260504211520 | 25 | 46 | 6.4 | 6.4 | 0.00 | 0.00 | 0.00 | 37 | 1018.0 |
| 20260504211017 | 25 | 118 | 4.8 | 8.0 | 0.00 | 0.00 | 0.00 | 36 | 1018.2 |
| 20260504210514 | 25 | 6 | 3.2 | 6.4 | 0.00 | 0.00 | 0.00 | 39 | 1018.2 |
| 20260504210010 | 25 | 69 | 1.6 | 3.2 | 0.00 | 0.00 | 0.00 | 36 | 1018.2 |
| 20260504205508 | 25 | 34 | 3.2 | 6.4 | 0.00 | 0.00 | 0.00 | 39 | 1018.2 |
| 20260504205006 | 25 | 35 | 6.4 | 12.9 | 0.00 | 0.00 | 0.00 | 38 | 1018.1 |
| 20260504204504 | 24 | 13 | 4.8 | 9.7 | 0.00 | 0.00 | 0.00 | 40 | 1018.3 |
| 20260504204003 | 25 | 278 | 4.8 | 4.8 | 0.00 | 0.00 | 0.00 | 38 | 1018.2 |
| 20260504203500 | 25 | 107 | 0.0 | 4.8 | 0.00 | 0.00 | 0.00 | 39 | 1018.3 |
| 20260504202956 | 25 | 191 | 6.4 | 8.0 | 0.00 | 0.00 | 0.00 | 35 | 1018.3 |
| 20260504202453 | 25 | 332 | 0.0 | 8.0 | 0.00 | 0.00 | 0.00 | 36 | 1018.2 |
| 20260504201950 | 25 | 212 | 4.8 | 6.4 | 0.00 | 0.00 | 0.00 | 40 | 1018.4 |
| 20260504201447 | 25 | 240 | 3.2 | 4.8 | 0.00 | 0.00 | 0.00 | 42 | 1018.3 |
| 20260504200944 | 24 | 179 | 0.0 | 3.2 | 0.00 | 0.00 | 0.00 | 43 | 1018.3 |
| 20260504200441 | 24 | 63 | 4.8 | 4.8 | 0.00 | 0.00 | 0.00 | 44 | 1018.2 |
| 20260504195938 | 25 | 89 | 1.6 | 6.4 | 0.00 | 0.00 | 0.00 | 44 | 1018.4 |
| 20260504195433 | 25 | 84 | 3.2 | 8.0 | 0.00 | 0.00 | 0.00 | 43 | 1018.3 |
| 20260504194930 | 24 | 158 | 0.0 | 4.8 | 0.00 | 0.00 | 0.00 | 43 | 1018.4 |
| 20260504194426 | 23 | 110 | 4.8 | 12.9 | 0.00 | 0.00 | 0.00 | 47 | 1018.2 |
| 20260504193922 | 24 | 122 | 4.8 | 9.7 | 0.00 | 0.00 | 0.00 | 45 | 1018.2 |
| 20260504193420 | 24 | 149 | 3.2 | 4.8 | 0.00 | 0.00 | 0.00 | 45 | 1018.2 |
| 20260504192918 | 25 | 45 | 0.0 | 4.8 | 0.00 | 0.00 | 0.00 | 44 | 1018.3 |
| 20260504192415 | 24 | 124 | 6.4 | 6.4 | 0.00 | 0.00 | 0.00 | 44 | 1018.3 |
| 20260504191914 | 24 | 157 | 3.2 | 8.0 | 0.00 | 0.00 | 0.00 | 45 | 1018.1 |
| 20260504191412 | 24 | 54 | 4.8 | 4.8 | 0.00 | 0.00 | 0.00 | 47 | 1018.5 |
| 20260504190906 | 24 | 60 | 3.2 | 6.4 | 0.00 | 0.00 | 0.00 | 43 | 1018.5 |
| 20260504190403 | 23 | 89 | 6.4 | 6.4 | 0.00 | 0.00 | 0.00 | 46 | 1018.4 |
| 20260504185900 | 23 | 81 | 3.2 | 4.8 | 0.00 | 0.00 | 0.00 | 46 | 1018.5 |
| 20260504185357 | 23 | 64 | 4.8 | 8.0 | 0.00 | 0.00 | 0.00 | 45 | 1018.4 |
| 20260504184853 | 24 | 123 | 3.2 | 6.4 | 0.00 | 0.00 | 0.00 | 43 | 1018.7 |
| 20260504184348 | 23 | 105 | 4.8 | 9.7 | 0.00 | 0.00 | 0.00 | 43 | 1018.3 |
| 20260504183844 | 24 | 34 | 4.8 | 8.0 | 0.00 | 0.00 | 0.00 | 45 | 1018.5 |
| 20260504183342 | 23 | 81 | 3.2 | 8.0 | 0.00 | 0.00 | 0.00 | 45 | 1018.6 |
| 20260504182840 | 23 | 63 | 3.2 | 4.8 | 0.00 | 0.00 | 0.00 | 45 | 1018.5 |
| 20260504182337 | 25 | 168 | 8.0 | 8.0 | 0.00 | 0.00 | 0.00 | 42 | 1018.5 |
| 20260504181833 | 24 | 123 | 4.8 | 6.4 | 0.00 | 0.00 | 0.00 | 44 | 1018.7 |
| 20260504181331 | 23 | 91 | 6.4 | 8.0 | 0.00 | 0.00 | 0.00 | 45 | 1018.5 |
| 20260504180830 | 23 | 64 | 3.2 | 4.8 | 0.00 | 0.00 | 0.00 | 45 | 1018.4 |
| 20260504180328 | 23 | 136 | 4.8 | 6.4 | 0.00 | 0.00 | 0.00 | 45 | 1018.4 |
| 20260504175826 | 23 | 106 | 3.2 | 3.2 | 0.00 | 0.00 | 0.00 | 47 | 1018.3 |
| 20260504175322 | 23 | 73 | 4.8 | 9.7 | 0.00 | 0.00 | 0.00 | 46 | 1018.3 |
| 20260504174821 | 23 | 211 | 3.2 | 8.0 | 0.00 | 0.00 | 0.00 | 45 | 1018.3 |
| 20260504174318 | 23 | 157 | 8.0 | 8.0 | 0.00 | 0.00 | 0.00 | 45 | 1018.0 |
| 20260504173814 | 23 | 127 | 3.2 | 4.8 | 0.00 | 0.00 | 0.00 | 46 | 1018.3 |
| 20260504173311 | 23 | 103 | 3.2 | 4.8 | 0.00 | 0.00 | 0.00 | 47 | 1018.3 |
| 20260504172808 | 22 | 201 | 4.8 | 4.8 | 0.00 | 0.00 | 0.00 | 46 | 1018.5 |
| 20260504172305 | 22 | 168 | 0.0 | 6.4 | 0.00 | 0.00 | 0.00 | 47 | 1018.3 |
| 20260504171800 | 22 | 119 | 3.2 | 4.8 | 0.00 | 0.00 | 0.00 | 46 | 1018.4 |
| 20260504171258 | 23 | 245 | 1.6 | 3.2 | 0.00 | 0.00 | 0.00 | 44 | 1018.3 |
| 20260504170755 | 22 | 85 | 1.6 | 4.8 | 0.00 | 0.00 | 0.00 | 45 | 1018.2 |
| 20260504170252 | 22 | 196 | 3.2 | 3.2 | 0.00 | 0.00 | 0.00 | 47 | 1018.4 |
| 20260504160210 | 21 | 302 | 0.0 | 3.2 | 0.00 | 0.00 | 0.00 | 61 | 1018.3 |
| 20260504151138 | 14 | 44 | 0.0 | 3.2 | 0.00 | 0.00 | 0.00 | 86 | 1017.8 |
| 20260504150636 | 14 | 55 | 1.6 | 3.2 | 0.00 | 0.00 | 0.00 | 86 | 1017.9 |
| 20260504150132 | 13 | 27 | 1.6 | 3.2 | 0.00 | 0.00 | 0.00 | 87 | 1018.0 |
| 20260504141101 | 12 | 128 | 0.0 | 3.2 | 0.00 | 0.00 | 0.00 | 94 | 1017.6 |
| 20260504140558 | 11 | 42 | 0.0 | 3.2 | 0.00 | 0.00 | 0.00 | 94 | 1017.7 |
| 20260504130522 | 11 | 229 | 0.0 | 3.2 | 0.00 | 0.00 | 0.00 | 96 | 1017.6 |
| 20260504110409 | 11 | 70 | 0.0 | 3.2 | 0.00 | 0.00 | 0.00 | 95 | 1017.1 |
| 20260504100326 | 12 | 326 | 0.0 | 3.2 | 0.00 | 0.00 | 0.00 | 94 | 1017.2 |
| 20260504081720 | 12 | 257 | 0.0 | 3.2 | 0.00 | 0.00 | 0.00 | 89 | 1017.2 |
| 20260504081216 | 12 | 326 | 1.6 | 3.2 | 0.00 | 0.00 | 0.00 | 89 | 1017.3 |
| 20260504080713 | 12 | 353 | 0.0 | 1.6 | 0.00 | 0.00 | 0.00 | 89 | 1017.4 |
| 20260504080209 | 12 | 113 | 0.0 | 1.6 | 0.00 | 0.00 | 0.00 | 88 | 1017.4 |
| 20260504070137 | 13 | 310 | 1.6 | 3.2 | 0.00 | 0.00 | 0.00 | 84 | 1017.4 |
| 20260504050526 | 15 | 55 | 0.0 | 1.6 | 0.00 | 0.00 | 0.00 | 77 | 1017.4 |
| 20260504050023 | 15 | 333 | 0.0 | 3.2 | 0.00 | 0.00 | 0.00 | 75 | 1017.4 |
| 20260504045520 | 15 | 225 | 1.6 | 3.2 | 0.00 | 0.00 | 0.00 | 74 | 1017.3 |
| 20260504045015 | 16 | 231 | 0.0 | 3.2 | 0.00 | 0.00 | 0.00 | 73 | 1017.4 |
| 20260504044513 | 16 | 344 | 1.6 | 1.6 | 0.00 | 0.00 | 0.00 | 73 | 1017.3 |
| 20260504044009 | 16 | 155 | 0.0 | 3.2 | 0.00 | 0.00 | 0.00 | 71 | 1017.2 |
| 20260504043506 | 16 | 154 | 1.6 | 3.2 | 0.00 | 0.00 | 0.00 | 69 | 1017.4 |
| 20260504043004 | 16 | 302 | 0.0 | 1.6 | 0.00 | 0.00 | 0.00 | 68 | 1017.5 |
| 20260504042500 | 16 | 100 | 0.0 | 1.6 | 0.00 | 0.00 | 0.00 | 67 | 1017.6 |
| 20260504041957 | 17 | 89 | 0.0 | 1.6 | 0.00 | 0.00 | 0.00 | 65 | 1017.5 |
| 20260504041453 | 17 | 98 | 1.6 | 3.2 | 0.00 | 0.00 | 0.00 | 64 | 1017.4 |
| 20260504040949 | 17 | 72 | 3.2 | 3.2 | 0.00 | 0.00 | 0.00 | 63 | 1017.4 |
| 20260504040447 | 17 | 121 | 3.2 | 3.2 | 0.00 | 0.00 | 0.00 | 61 | 1017.5 |
| 20260504035943 | 17 | 98 | 1.6 | 1.6 | 0.00 | 0.00 | 0.00 | 59 | 1017.2 |